Weather in Kurgan

Russia / Kurgan Oblast     55°26′29″N   65°20′39″E
temp.,
°C
wind,
m/s
gust,
m/s
humid.,
%
clouds,
%
prec.,
mm/h
press.,
hPa
HPBL,
m
20 april, tue
tue2023:00−3ne22505 0.0 103320
02:00−4ne24540 0.0 103379
05:00−4ne22520 0.0 103427
08:00−1n22355 0.0 1035437
11:00+3nnw232525 0.0 10331258
14:00+6wnw34255 0.0 10311747
17:00+7wnw56295 0.0 10301720
20:00+3wsw34460 0.0 102967
21 april, wed
wed2123:00+1w37594 0.0 1028105
02:00+1wnw38685 0.0 1028137
05:000nw39760 0.0 1029158
08:00+5nnw46623 0.0 1030350
11:00+10n45515 0.0 10311310
14:00+12n454375 0.0 10311839
17:00+11nne3448100 0.0 10321236
20:00+8nne22606 0.0 103414
22 april, thu
thu2223:00+5e23675 0.0 103547
02:00+3se35655 0.0 103688
05:00+2se35675 0.0 103873
08:00+6sse46525 0.0 1039334
11:00+11sse56425 0.0 10391068
14:00+13sse5639100 0.0 10381682
17:00+13s5639100 0.0 10371787
20:00+10se41051100 0.0 1037279
23 april, fri
fri2323:00+8sse51246100 0.0 1037368
02:00+7sse41153100 0.0 1037277
05:00+6s41159100 0.0 1036306
08:00+8s51152100 0.0 1037458
11:00+12s6839100 0.0 1036871
14:00+12s6736100 0.0 10351342
17:00+13s673599 0.0 10341339
20:00+9se494587 0.0 1033210
24 april, sat
sat2423:00+8sse4124496 0.0 1032274
02:00+6sse31051100 0.0 1031226
05:00+5sse3556100 0.0 103097
08:00+7sse4651100 0.0 1029277
11:00+10s5743100 0.0 1028642
14:00+12sse5737100 0.0 10271177
17:00+13sse5733100 0.0 10251638
20:00+9se51042100 0.0 1025470